Regional Weather Roundup
Issued by NWS Sioux Falls, SD

Home | Current Version | Previous Version | Text Only | Print | Product List | Glossary On
Versions: 1 2 3 4 5 6 7 8 9 10 11 12 13 14 15 16 17 18 19 20 21 22 23 24 25 26 27 28 29 30 31 32 33 34 35 36 37 38 39 40 41 42 43 44 45 46 47 48 49 50
000
ASUS43 KFSD 270002
RWRFSD

WEATHER ROUNDUP FOR SE SOUTH DAKOTA/SW MINNESOTA/NW IOWA
NATIONAL WEATHER SERVICE SIOUX FALLS SD
700 PM CDT MON SEP 26 2016

NOTE: "FAIR" INDICATES FEW OR NO CLOUDS BELOW 12,000 FEET WITH NO
SIGNIFICANT WEATHER AND OR OBSTRUCTIONS TO VISIBILITY.


SDZ038>040-050-052>070-270100-
SOUTHEAST SOUTH DAKOTA

CITY           SKY/WX    TMP DP  RH WIND       PRES   REMARKS
CHAMBERLAIN    CLEAR     71  41  33 NW8       30.09F
6HR MIN TEMP:  71; 6HR MAX TEMP:  75;

HURON          CLEAR     66  31  27 NW9       30.05S
6HR MIN TEMP:  66; 6HR MAX TEMP:  74;

MADISON        FAIR      63  30  29 NW13G23   30.05S
MITCHELL       CLEAR     69  35  28 NW8       30.06F
6HR MIN TEMP:  69; 6HR MAX TEMP:  75;

SIOUX FALLS    CLEAR     66  37  34 NW7       30.03F
6HR MIN TEMP:  66; 6HR MAX TEMP:  72;

WINNER         FAIR      71  40  32 NW6       30.10F
YANKTON        CLEAR     66  43  42 W8        30.05F
$$

MNZ071-072-080-081-089-090-097-098-270100-
SOUTHWEST MINNESOTA

CITY           SKY/WX    TMP DP  RH WIND       PRES   REMARKS
FAIRMONT       CLEAR     63  33  32 NW14      29.98S
JACKSON        CLEAR     63  27  25 W8        30.00S
LUVERNE        CLEAR     64  27  24 NW12      30.03S
MARSHALL       CLEAR     61  35  37 NW12      29.99R
6HR MIN TEMP:  61; 6HR MAX TEMP:  68;

MONTEVIDEO     CLEAR     64  34  32 NW10G18   29.98S
PIPESTONE      CLEAR     64  23  20 NW9G16    30.02F
REDWOOD FALLS  CLEAR     62  31  31 NW12      29.95S
TRACY          CLEAR     64  34  32 NW9G17    29.99F
WINDOM         CLEAR     63  30  29 W9        29.99S
WORTHINGTON    CLEAR     60  33  36 W10       30.02S
$$

IAZ001>003-012>014-020>022-031-032-NEZ013-014-SDZ071-270100-
NORTHWEST IOWA

CITY           SKY/WX    TMP DP  RH WIND       PRES   REMARKS
CHEROKEE       CLEAR     66  40  38 W7        30.04S
DENISON        CLEAR     66  43  42 NW6       30.03F
ESTHERVILLE    CLEAR     62  33  33 NW8       29.99S
LE MARS        CLEAR     66  41  39 W5        30.05F
ORANGE CITY    CLEAR     64  41  42 W9        30.04F
SHELDON        CLEAR     64  37  36 W8        30.02S
SIOUX CITY     CLEAR     69  42  37 NW10      30.06S
6HR MIN TEMP:  69; 6HR MAX TEMP:  75;

SPENCER        CLEAR     65  36  34 W13       30.00F
6HR MIN TEMP:  65; 6HR MAX TEMP:  71;

STORM LAKE     CLEAR     66  37  34 W10       30.04S
$$

ABBREVIATIONS USED IN REMARKS
   TC - TEMPERATURE IN CELSIUS
  WCI - WIND CHILL INDEX
   HX - HEAT INDEX
  VSB - VISIBILITY





USA.gov is the U.S. government's official web portal to all federal, state and local government web resources and services.